Time[GMT],salinity[psu](1m),sigma_t[kg/m^3](1m),conductivity[msiemens/cm](1m),temperature[C](1m)
2022-05-26 19:00,35.556,22.774,57.147,28.12
2022-05-26 20:00,35.585,22.806,57.153,28.09
2022-05-26 21:00,35.607,22.856,57.074,27.99
2022-05-26 22:00,35.611,22.876,57.028,27.94
2022-05-26 23:00,35.626,22.920,56.943,27.84
2022-05-27 00:00,35.633,22.940,56.902,27.80
2022-05-27 01:00,35.617,22.905,56.951,27.86
2022-05-27 02:00,35.620,22.924,56.906,27.82
2022-05-27 03:00,35.623,22.936,56.877,27.78
2022-05-27 04:00,35.628,22.944,56.869,27.77
2022-05-27 05:00,35.631,22.956,56.841,27.74
2022-05-27 06:00,35.596,22.906,56.870,27.81
2022-05-27 07:00,35.618,22.957,56.789,27.71
2022-05-27 08:00,35.623,22.971,56.760,27.68
2022-05-27 09:00,35.622,22.971,56.758,27.68
2022-05-27 10:00,35.623,22.991,56.693,27.61
2022-05-27 11:00,35.623,22.992,56.692,27.61
2022-05-27 12:00,35.620,22.990,56.687,27.61
2022-05-27 13:00,35.625,22.971,56.770,27.68
2022-05-27 14:00,35.629,22.944,56.873,27.77
2022-05-27 15:00,35.638,22.928,56.958,27.84
2022-05-27 16:00,35.635,22.912,57.002,27.89
2022-05-27 17:00,35.622,22.891,57.017,27.92
2022-05-27 18:00,35.593,22.893,56.903,27.85
2022-05-27 19:00,35.585,22.894,56.867,27.83
2022-05-27 20:00,35.585,22.906,56.829,27.79
2022-05-27 21:00,35.596,22.913,56.846,27.79
2022-05-27 22:00,35.592,22.929,56.778,27.73
2022-05-27 23:00,35.598,22.946,56.745,27.70
2022-05-28 00:00,35.597,22.946,56.742,27.69
2022-05-28 01:00,35.598,22.951,56.731,27.68
2022-05-28 02:00,35.608,22.962,56.735,27.67
2022-05-28 03:00,35.611,22.968,56.721,27.66
2022-05-28 04:00,35.614,22.968,56.732,27.66
2022-05-28 05:00,35.614,22.985,56.678,27.61
2022-05-28 06:00,35.573,22.862,56.924,27.90
2022-05-28 07:00,35.578,22.886,56.865,27.83
2022-05-28 08:00,35.584,22.891,56.872,27.83
2022-05-28 09:00,35.592,22.931,56.772,27.73
2022-05-28 10:00,35.595,22.922,56.815,27.76
2022-05-28 11:00,35.593,22.920,56.810,27.76
2022-05-28 12:00,35.590,22.911,56.828,27.78
2022-05-28 13:00,35.598,22.917,56.840,27.78
2022-05-28 14:00,35.558,22.840,56.938,27.93
2022-05-28 15:00,35.519,22.771,57.013,28.05
2022-05-28 16:00,35.515,22.753,57.058,28.10
2022-05-28 17:00,35.513,22.741,57.089,28.13
2022-05-28 18:00,35.514,22.723,57.150,28.18
2022-05-28 19:00,35.538,22.750,57.156,28.16
2022-05-28 20:00,35.565,22.781,57.157,28.12
2022-05-28 21:00,35.570,22.773,57.205,28.16
2022-05-28 22:00,35.586,22.806,57.158,28.10
2022-05-28 23:00,35.582,22.817,57.106,28.05
2022-05-29 00:00,35.601,22.863,57.029,27.96
2022-05-29 01:00,35.624,22.914,56.950,27.85
2022-05-29 02:00,35.650,22.973,56.860,27.73
2022-05-29 03:00,35.646,23.017,56.697,27.59
2022-05-29 04:00,35.643,23.012,56.703,27.60
2022-05-29 05:00,35.630,22.956,56.839,27.74
2022-05-29 06:00,35.572,22.867,56.904,27.88
2022-05-29 07:00,35.581,22.890,56.865,27.83
2022-05-29 08:00,35.598,22.921,56.827,27.77
2022-05-29 09:00,35.622,22.978,56.732,27.65
2022-05-29 10:00,35.628,22.960,56.817,27.72
2022-05-29 11:00,35.637,22.969,56.821,27.72
2022-05-29 12:00,35.640,22.973,56.821,27.71
2022-05-29 13:00,35.648,22.974,56.848,27.73
2022-05-29 14:00,35.662,22.979,56.887,27.74
2022-05-29 15:00,35.663,22.968,56.924,27.78
2022-05-29 16:00,35.611,22.810,57.245,28.14
2022-05-29 17:00,35.609,22.771,57.361,28.25
2022-05-29 18:00,35.592,22.724,57.450,28.36
2022-05-29 19:00,35.553,22.691,57.407,28.37
2022-05-29 20:00,35.542,22.671,57.429,28.41
2022-05-29 21:00,35.552,22.690,57.409,28.37
2022-05-29 22:00,35.565,22.715,57.374,28.32
2022-05-29 23:00,35.582,22.753,57.319,28.25
2022-05-30 00:00,35.608,22.820,57.199,28.10
2022-05-30 01:00,35.651,22.961,56.903,27.77
2022-05-30 02:00,35.654,22.982,56.845,27.71
2022-05-30 03:00,35.653,22.989,56.817,27.69
2022-05-30 04:00,35.657,23.008,56.772,27.64
2022-05-30 05:00,35.653,23.012,56.740,27.62
2022-05-30 06:00,35.655,23.013,56.746,27.62
2022-05-30 07:00,35.657,23.022,56.725,27.60
2022-05-30 08:00,35.619,22.929,56.886,27.80
2022-05-30 09:00,35.618,22.929,56.881,27.80
2022-05-30 10:00,35.637,22.957,56.863,27.75
2022-05-30 11:00,35.676,23.015,56.821,27.66
2022-05-30 12:00,35.686,23.010,56.878,27.70
2022-05-30 13:00,35.674,22.993,56.888,27.73
2022-05-30 14:00,35.671,22.980,56.917,27.76
2022-05-30 15:00,35.685,22.991,56.935,27.76
2022-05-30 16:00,35.688,22.978,56.989,27.80
2022-05-30 17:00,35.687,22.962,57.042,27.85
2022-05-30 18:00,35.692,22.942,57.124,27.92
2022-05-30 19:00,35.596,22.788,57.257,28.17
2022-05-30 20:00,35.558,22.750,57.236,28.20
2022-05-30 21:00,35.576,22.774,57.222,28.17
2022-05-30 22:00,35.607,22.822,57.187,28.09
2022-05-30 23:00,35.640,22.881,57.122,27.99
2022-05-31 00:00,35.670,22.929,57.083,27.91
2022-05-31 01:00,35.690,22.965,57.042,27.85
2022-05-31 02:00,35.705,22.995,57.003,27.79
2022-05-31 03:00,35.710,23.013,56.963,27.75
2022-05-31 04:00,35.690,22.998,56.932,27.75
2022-05-31 05:00,35.669,22.984,56.899,27.74
2022-05-31 06:00,35.653,22.969,56.885,27.75
2022-05-31 07:00,35.654,22.976,56.863,27.73
2022-05-31 08:00,35.657,22.982,56.859,27.72
2022-05-31 09:00,35.620,22.928,56.889,27.80
2022-05-31 10:00,35.626,22.936,56.887,27.79
2022-05-31 11:00,35.631,22.945,56.878,27.78
2022-05-31 12:00,35.645,22.957,56.892,27.77
2022-05-31 13:00,35.648,22.946,56.941,27.81
2022-05-31 14:00,35.661,22.945,56.993,27.84
2022-05-31 15:00,35.657,22.932,57.022,27.87
2022-05-31 16:00,35.661,22.928,57.049,27.89
2022-05-31 17:00,35.650,22.900,57.097,27.95
2022-05-31 18:00,35.638,22.873,57.142,28.01
2022-05-31 19:00,35.643,22.873,57.161,28.02
2022-05-31 20:00,35.560,22.741,57.272,28.24
2022-05-31 21:00,35.504,22.720,57.123,28.17
2022-05-31 22:00,35.533,22.737,57.181,28.19
2022-05-31 23:00,35.548,22.770,57.131,28.12
2022-06-01 00:00,35.586,22.819,57.117,28.06
2022-06-01 01:00,35.630,22.851,57.181,28.06
2022-06-01 02:00,35.655,22.878,57.192,28.04
2022-06-01 03:00,35.674,22.914,57.149,27.97
2022-06-01 04:00,35.672,22.914,57.137,27.96
2022-06-01 05:00,35.672,22.922,57.112,27.94
2022-06-01 06:00,35.665,22.927,57.069,27.91
2022-06-01 07:00,35.668,22.938,57.044,27.88
2022-06-01 08:00,35.666,22.945,57.014,27.86
2022-06-01 09:00,35.644,22.934,56.966,27.84
2022-06-01 10:00,35.619,22.911,56.943,27.85
2022-06-01 11:00,35.607,22.903,56.921,27.85
2022-06-01 12:00,35.647,22.942,56.949,27.82
2022-06-01 13:00,35.624,22.908,56.972,27.87
2022-06-01 14:00,35.629,22.889,57.052,27.94
2022-06-01 15:00,35.627,22.859,57.146,28.03
2022-06-01 16:00,35.628,22.826,57.258,28.13
2022-06-01 17:00,35.633,22.805,57.347,28.21
2022-06-01 18:00,35.649,22.811,57.390,28.23
2022-06-01 19:00,35.671,22.821,57.440,28.24
2022-06-01 20:00,35.656,22.800,57.452,28.28
2022-06-01 21:00,35.593,22.739,57.404,28.32
2022-06-01 22:00,35.561,22.744,57.267,28.23
2022-06-01 23:00,35.563,22.775,57.169,28.14
2022-06-02 00:00,35.562,22.785,57.135,28.11
2022-06-02 01:00,35.566,22.800,57.102,28.07
2022-06-02 02:00,35.573,22.820,57.061,28.02
2022-06-02 03:00,35.611,22.850,57.111,28.02
2022-06-02 04:00,35.629,22.883,57.075,27.96
2022-06-02 05:00,35.666,22.937,57.043,27.88
2022-06-02 06:00,35.688,22.989,56.957,27.77
2022-06-02 07:00,35.702,23.034,56.858,27.66
2022-06-02 08:00,35.708,23.026,56.912,27.71
2022-06-02 09:00,35.649,22.946,56.943,27.81
2022-06-02 10:00,35.635,22.923,56.963,27.85
2022-06-02 11:00,35.640,22.932,56.955,27.84
2022-06-02 12:00,35.657,22.941,56.991,27.85
2022-06-02 13:00,35.692,22.960,57.067,27.87
2022-06-02 14:00,35.694,22.956,57.087,27.89
2022-06-02 15:00,35.708,22.948,57.165,27.94
2022-06-02 16:00,35.717,22.943,57.217,27.98
2022-06-02 17:00,35.712,22.915,57.290,28.05
2022-06-02 18:00,35.692,22.883,57.317,28.10
2022-06-02 19:00,35.689,22.868,57.357,28.14
2022-06-02 20:00,35.651,22.764,57.551,28.37
2022-06-02 21:00,35.607,22.727,57.497,28.38
2022-06-02 22:00,35.601,22.757,57.376,28.28
2022-06-02 23:00,35.581,22.744,57.342,28.27
2022-06-03 00:00,35.602,22.789,57.277,28.18
2022-06-03 01:00,35.608,22.804,57.249,28.15
2022-06-03 02:00,35.609,22.812,57.230,28.13
2022-06-03 03:00,35.620,22.833,57.203,28.09
2022-06-03 04:00,35.637,22.862,57.174,28.04
2022-06-03 05:00,35.665,22.898,57.166,28.00
2022-06-03 06:00,35.683,22.923,57.153,27.96
2022-06-03 07:00,35.709,22.954,57.153,27.93
2022-06-03 08:00,35.721,22.976,57.129,27.89
2022-06-03 09:00,35.628,22.882,57.070,27.96
2022-06-03 10:00,35.605,22.838,57.129,28.04
2022-06-03 11:00,35.604,22.841,57.114,28.03
2022-06-03 12:00,35.586,22.805,57.162,28.10
2022-06-03 13:00,35.578,22.783,57.203,28.15
2022-06-03 14:00,35.571,22.763,57.242,28.19
2022-06-03 15:00,35.584,22.751,57.331,28.26
2022-06-03 16:00,35.617,22.742,57.488,28.36
2022-06-03 17:00,35.561,22.672,57.501,28.45
2022-06-03 18:00,35.515,22.604,57.541,28.55
2022-06-03 19:00,35.477,22.573,57.496,28.55
2022-06-03 20:00,35.487,22.578,57.520,28.56
2022-06-03 21:00,35.515,22.609,57.526,28.53
2022-06-03 22:00,35.535,22.647,57.479,28.46
2022-06-03 23:00,35.525,22.656,57.412,28.41
2022-06-04 00:00,35.548,22.685,57.407,28.38
2022-06-04 01:00,35.594,22.729,57.442,28.35
2022-06-04 02:00,35.620,22.767,57.418,28.29
2022-06-04 03:00,35.663,22.808,57.455,28.27
2022-06-04 04:00,35.718,22.866,57.474,28.21
2022-06-04 05:00,35.735,22.905,57.415,28.14
2022-06-04 06:00,35.751,22.934,57.380,28.08
2022-06-04 07:00,35.766,22.961,57.351,28.04
2022-06-04 08:00,35.758,22.961,57.321,28.02
2022-06-04 09:00,35.748,22.959,57.285,28.00
2022-06-04 10:00,35.720,22.917,57.315,28.07
2022-06-04 11:00,35.694,22.886,57.316,28.10
2022-06-04 12:00,35.711,22.911,57.300,28.06
2022-06-04 13:00,35.728,22.915,57.353,28.09
2022-06-04 14:00,35.692,22.858,57.403,28.18
2022-06-04 15:00,35.684,22.826,57.476,28.26
2022-06-04 16:00,35.664,22.778,57.554,28.36
2022-06-04 17:00,35.626,22.705,57.645,28.49
2022-06-04 18:00,35.615,22.674,57.700,28.56
2022-06-04 19:00,35.602,22.648,57.736,28.61
2022-06-04 20:00,35.598,22.637,57.757,28.64
2022-06-04 21:00,35.590,22.628,57.757,28.65
2022-06-04 22:00,35.591,22.643,57.710,28.60
2022-06-04 23:00,35.602,22.682,57.627,28.51
2022-06-05 00:00,35.602,22.690,57.600,28.49
2022-06-05 01:00,35.626,22.727,57.572,28.43
2022-06-05 02:00,35.673,22.785,57.568,28.36
2022-06-05 03:00,35.742,22.869,57.561,28.26
2022-06-05 04:00,35.689,22.832,57.477,28.25
2022-06-05 05:00,35.721,22.906,57.357,28.10
2022-06-05 06:00,35.730,22.952,57.240,27.98
2022-06-05 07:00,35.726,22.969,57.166,27.92
2022-06-05 08:00,35.724,22.971,57.153,27.91
2022-06-05 09:00,35.720,22.974,57.128,27.89
2022-06-05 10:00,35.711,22.976,57.085,27.86
2022-06-05 11:00,35.720,22.977,57.120,27.88
2022-06-05 12:00,35.724,22.978,57.131,27.89
2022-06-05 13:00,35.735,22.972,57.193,27.93
2022-06-05 14:00,35.708,22.886,57.369,28.13
2022-06-05 15:00,35.619,22.747,57.481,28.35
2022-06-05 16:00,35.581,22.637,57.690,28.60
2022-06-05 17:00,35.528,22.565,57.718,28.69
2022-06-05 18:00,35.485,22.504,57.748,28.78
2022-06-05 19:00,35.465,22.497,57.696,28.76
2022-06-05 20:00,35.428,22.485,57.591,28.71
2022-06-05 21:00,35.446,22.490,57.645,28.73
2022-06-05 22:00,35.417,22.477,57.576,28.71
2022-06-05 23:00,35.413,22.500,57.484,28.63
2022-06-06 00:00,35.424,22.533,57.421,28.56
2022-06-06 01:00,35.427,22.548,57.381,28.51
2022-06-06 02:00,35.426,22.550,57.373,28.51
2022-06-06 03:00,35.436,22.563,57.370,28.49
2022-06-06 04:00,35.444,22.570,57.378,28.49
2022-06-06 05:00,35.473,22.607,57.369,28.44
2022-06-06 06:00,35.516,22.650,57.397,28.41
2022-06-06 07:00,35.558,22.702,57.390,28.35
2022-06-06 08:00,35.576,22.719,57.402,28.34
2022-06-06 09:00,35.547,22.706,57.336,28.31
2022-06-06 10:00,35.546,22.694,57.369,28.34
2022-06-06 11:00,35.549,22.698,57.369,28.34
2022-06-06 12:00,35.604,22.738,57.452,28.34
2022-06-06 13:00,35.657,22.795,57.471,28.29
2022-06-06 14:00,35.661,22.778,57.544,28.35
2022-06-06 15:00,35.691,22.791,57.617,28.38
2022-06-06 16:00,35.669,22.736,57.710,28.50
2022-06-06 17:00,35.664,22.706,57.790,28.58
2022-06-06 18:00,35.664,22.673,57.895,28.68
2022-06-06 19:00,35.657,22.648,57.953,28.74
2022-06-06 20:00,35.665,22.654,57.960,28.74
2022-06-06 21:00,35.637,22.627,57.941,28.75
2022-06-06 22:00,35.543,22.578,57.735,28.69
2022-06-06 23:00,35.548,22.599,57.688,28.64
2022-06-07 00:00,35.540,22.600,57.654,28.62
2022-06-07 01:00,35.554,22.639,57.582,28.53
2022-06-07 02:00,35.668,22.780,57.566,28.36
2022-06-07 03:00,35.718,22.904,57.351,28.10
2022-06-07 04:00,35.734,22.939,57.300,28.03
2022-06-07 05:00,35.735,22.970,57.200,27.94
2022-06-07 06:00,35.736,22.970,57.204,27.94
2022-06-07 07:00,35.735,22.976,57.182,27.92
2022-06-07 08:00,35.735,22.977,57.179,27.92
2022-06-07 09:00,35.735,22.979,57.173,27.91
2022-06-07 10:00,35.734,22.985,57.149,27.89
2022-06-07 11:00,35.738,22.985,57.162,27.90
2022-06-07 12:00,35.741,22.981,57.186,27.92
2022-06-07 13:00,35.730,22.979,57.154,27.90
2022-06-07 14:00,35.737,22.969,57.211,27.95
2022-06-07 15:00,35.740,22.968,57.224,27.95
2022-06-07 16:00,35.754,22.951,57.338,28.04
2022-06-07 17:00,35.744,22.941,57.332,28.05
2022-06-07 18:00,35.739,22.935,57.333,28.05
2022-06-07 19:00,35.724,22.917,57.332,28.07
2022-06-07 20:00,35.733,22.917,57.367,28.10
2022-06-07 21:00,35.648,22.700,57.749,28.56
2022-06-07 22:00,35.576,22.513,58.072,28.96
2022-06-07 23:00,35.556,22.515,57.989,28.91
2022-06-08 00:00,35.605,22.633,57.799,28.67
2022-06-08 01:00,35.645,22.749,57.574,28.40
2022-06-08 02:00,35.653,22.808,57.411,28.24
2022-06-08 03:00,35.676,22.875,57.282,28.09
2022-06-08 04:00,35.735,22.914,57.384,28.11
2022-06-08 05:00,35.727,22.915,57.353,28.09
2022-06-08 06:00,35.704,22.913,57.268,28.04
2022-06-08 07:00,35.700,22.916,57.243,28.02
2022-06-08 08:00,35.694,22.934,57.158,27.95
2022-06-08 09:00,35.708,22.983,57.053,27.84
2022-06-08 10:00,35.724,22.990,57.091,27.85
2022-06-08 11:00,35.730,22.992,57.109,27.86
2022-06-08 12:00,35.729,22.976,57.155,27.90
2022-06-08 13:00,35.738,22.975,57.196,27.93
2022-06-08 14:00,35.729,22.972,57.170,27.92
2022-06-08 15:00,35.706,22.938,57.190,27.97
2022-06-08 16:00,35.686,22.866,57.353,28.14
2022-06-08 17:00,35.667,22.822,57.425,28.24
2022-06-08 18:00,35.676,22.807,57.506,28.30
2022-06-08 19:00,35.661,22.774,57.554,28.36
2022-06-08 20:00,35.659,22.805,57.445,28.27
2022-06-08 21:00,35.657,22.814,57.408,28.23
2022-06-08 22:00,35.652,22.826,57.351,28.19
2022-06-08 23:00,35.660,22.848,57.307,28.14
2022-06-09 00:00,35.670,22.825,57.421,28.23
2022-06-09 01:00,35.660,22.823,57.391,28.21
2022-06-09 02:00,35.651,22.860,57.232,28.08
2022-06-09 03:00,35.661,22.888,57.180,28.02
2022-06-09 04:00,35.666,22.907,57.139,27.97
2022-06-09 05:00,35.673,22.925,57.105,27.93
2022-06-09 06:00,35.677,22.936,57.085,27.91
2022-06-09 07:00,35.680,22.939,57.089,27.91
2022-06-09 08:00,35.662,22.923,57.068,27.91
2022-06-09 09:00,35.667,22.925,57.085,27.92
2022-06-09 10:00,35.655,22.919,57.057,27.91
2022-06-09 11:00,35.646,22.910,57.052,27.92
2022-06-09 12:00,35.646,22.902,57.078,27.94
2022-06-09 13:00,35.647,22.892,57.113,27.97
2022-06-09 14:00,35.657,22.886,57.174,28.02
2022-06-09 15:00,35.663,22.854,57.302,28.13
2022-06-09 16:00,35.632,22.765,57.475,28.33
2022-06-09 17:00,35.621,22.737,57.523,28.39
2022-06-09 18:00,35.625,22.731,57.557,28.41
2022-06-09 19:00,35.610,22.710,57.564,28.44
2022-06-09 20:00,35.593,22.730,57.437,28.34
2022-06-09 21:00,35.600,22.763,57.356,28.26
2022-06-09 22:00,35.614,22.785,57.338,28.23
2022-06-09 23:00,35.627,22.774,57.425,28.29
2022-06-10 00:00,35.628,22.781,57.403,28.27
2022-06-10 01:00,35.628,22.788,57.379,28.25
2022-06-10 02:00,35.633,22.789,57.396,28.25
2022-06-10 03:00,35.631,22.801,57.351,28.21
2022-06-10 04:00,35.633,22.805,57.346,28.21
2022-06-10 05:00,35.632,22.832,57.256,28.12
2022-06-10 06:00,35.643,22.867,57.179,28.04
2022-06-10 07:00,35.597,22.834,57.112,28.04
2022-06-10 08:00,35.592,22.831,57.101,28.03
2022-06-10 09:00,35.604,22.834,57.138,28.05
2022-06-10 10:00,35.600,22.835,57.119,28.04
2022-06-10 11:00,35.598,22.837,57.104,28.03
2022-06-10 12:00,35.600,22.834,57.123,28.04
2022-06-10 13:00,35.605,22.827,57.166,28.08
2022-06-10 14:00,35.611,22.814,57.230,28.13
2022-06-10 15:00,35.598,22.788,57.264,28.18
2022-06-10 16:00,35.592,22.761,57.328,28.25
2022-06-10 17:00,35.582,22.746,57.339,28.27
2022-06-10 18:00,35.536,22.672,57.402,28.39
2022-06-10 19:00,35.540,22.686,57.371,28.35
2022-06-10 20:00,35.546,22.680,57.413,28.39
2022-06-10 21:00,35.547,22.686,57.399,28.37
2022-06-10 22:00,35.548,22.705,57.342,28.32
2022-06-10 23:00,35.548,22.712,57.317,28.29
2022-06-11 00:00,35.556,22.726,57.305,28.27
2022-06-11 01:00,35.558,22.736,57.280,28.25
2022-06-11 02:00,35.569,22.748,57.284,28.23
2022-06-11 03:00,35.569,22.760,57.243,28.20
2022-06-11 04:00,35.579,22.777,57.226,28.17
2022-06-11 05:00,35.586,22.795,57.196,28.13
2022-06-11 06:00,35.592,22.803,57.192,28.12
2022-06-11 07:00,35.598,22.814,57.179,28.10
2022-06-11 08:00,35.552,22.778,57.121,28.11
2022-06-11 09:00,35.551,22.767,57.151,28.14
2022-06-11 10:00,35.555,22.771,57.152,28.13
2022-06-11 11:00,35.559,22.778,57.145,28.12
2022-06-11 12:00,35.562,22.775,57.169,28.14
2022-06-11 13:00,35.565,22.772,57.188,28.15
2022-06-11 14:00,35.568,22.765,57.224,28.18
2022-06-11 15:00,35.571,22.757,57.261,28.21
2022-06-11 16:00,35.557,22.734,57.281,28.25
2022-06-11 17:00,35.559,22.735,57.285,28.25
2022-06-11 18:00,35.565,22.743,57.282,28.24
2022-06-11 19:00,35.569,22.756,57.258,28.21
2022-06-11 20:00,35.564,22.756,57.238,28.20
2022-06-11 21:00,35.563,22.758,57.227,28.19
2022-06-11 22:00,35.566,22.761,57.231,28.19
2022-06-11 23:00,35.567,22.764,57.223,28.18
2022-06-12 00:00,35.566,22.766,57.213,28.17
2022-06-12 01:00,35.569,22.771,57.209,28.17
2022-06-12 02:00,35.568,22.772,57.199,28.16
2022-06-12 03:00,35.565,22.770,57.198,28.16
2022-06-12 04:00,35.565,22.774,57.182,28.15
2022-06-12 05:00,35.562,22.774,57.168,28.14
2022-06-12 06:00,35.555,22.767,57.165,28.14
2022-06-12 07:00,35.553,22.771,57.147,28.13
2022-06-12 08:00,35.553,22.770,57.149,28.13
2022-06-12 09:00,35.551,22.774,57.128,28.11
2022-06-12 10:00,35.562,22.794,57.107,28.08
2022-06-12 11:00,35.562,22.795,57.102,28.08
2022-06-12 12:00,35.564,22.797,57.103,28.07
2022-06-12 13:00,35.564,22.791,57.121,28.09
2022-06-12 14:00,35.562,22.783,57.139,28.11
2022-06-12 15:00,35.558,22.769,57.170,28.14
2022-06-12 16:00,35.560,22.752,57.235,28.20
2022-06-12 17:00,35.547,22.734,57.243,28.23
2022-06-12 18:00,35.544,22.716,57.292,28.28
2022-06-12 19:00,35.554,22.716,57.327,28.30
2022-06-12 20:00,35.557,22.719,57.331,28.29
2022-06-12 21:00,35.558,22.739,57.269,28.24
2022-06-12 22:00,35.561,22.748,57.251,28.22
2022-06-12 23:00,35.561,22.756,57.226,28.19
2022-06-13 00:00,35.563,22.761,57.218,28.18
2022-06-13 01:00,35.564,22.768,57.200,28.16
2022-06-13 02:00,35.564,22.770,57.190,28.15
2022-06-13 03:00,35.563,22.775,57.172,28.14
2022-06-13 04:00,35.569,22.784,57.163,28.12
2022-06-13 05:00,35.565,22.781,57.161,28.13
2022-06-13 06:00,35.562,22.781,57.149,28.12
2022-06-13 07:00,35.569,22.789,57.147,28.11
2022-06-13 08:00,35.570,22.792,57.141,28.10
2022-06-13 09:00,35.575,22.794,57.154,28.11
2022-06-13 10:00,35.572,22.788,57.165,28.12
2022-06-13 11:00,35.581,22.807,57.137,28.08
2022-06-13 12:00,35.582,22.811,57.127,28.07
2022-06-13 13:00,35.581,22.802,57.154,28.10
2022-06-13 14:00,35.575,22.776,57.215,28.16
2022-06-13 15:00,35.574,22.764,57.248,28.20
2022-06-13 16:00,35.574,22.759,57.268,28.21
2022-06-13 17:00,35.577,22.765,57.259,28.20
2022-06-13 18:00,35.579,22.765,57.267,28.21
2022-06-13 19:00,35.589,22.776,57.271,28.20
2022-06-13 20:00,35.569,22.738,57.315,28.26
2022-06-13 21:00,35.564,22.742,57.284,28.24
2022-06-13 22:00,35.560,22.741,57.268,28.23
2022-06-13 23:00,35.564,22.755,57.242,28.20
2022-06-14 00:00,35.570,22.763,57.237,28.19
2022-06-14 01:00,35.572,22.772,57.216,28.17
2022-06-14 02:00,35.568,22.767,57.217,28.17
2022-06-14 03:00,35.565,22.770,57.197,28.16
2022-06-14 04:00,35.566,22.774,57.185,28.15
2022-06-14 05:00,35.563,22.776,57.168,28.14
2022-06-14 06:00,35.565,22.778,57.169,28.13
2022-06-14 07:00,35.572,22.788,57.164,28.12
2022-06-14 08:00,35.572,22.794,57.143,28.10
2022-06-14 09:00,35.571,22.792,57.146,28.10
2022-06-14 10:00,35.558,22.797,57.079,28.06
2022-06-14 11:00,35.549,22.781,57.095,28.09
2022-06-14 12:00,35.543,22.775,57.093,28.09
2022-06-14 13:00,35.547,22.772,57.119,28.11
2022-06-14 14:00,35.543,22.757,57.154,28.15
2022-06-14 15:00,35.552,22.753,57.199,28.18
2022-06-14 16:00,35.553,22.730,57.277,28.25
2022-06-14 17:00,35.554,22.718,57.324,28.29
2022-06-14 18:00,35.557,22.734,57.280,28.25
2022-06-14 19:00,35.552,22.730,57.275,28.25
2022-06-14 20:00,35.556,22.712,57.349,28.31
2022-06-14 21:00,35.578,22.730,57.375,28.31
2022-06-14 22:00,35.588,22.746,57.363,28.28
2022-06-14 23:00,35.592,22.767,57.308,28.23
2022-06-15 00:00,35.596,22.779,57.285,28.20
2022-06-15 01:00,35.594,22.782,57.268,28.19
2022-06-15 02:00,35.591,22.780,57.266,28.19
2022-06-15 03:00,35.591,22.785,57.250,28.17
2022-06-15 04:00,35.586,22.777,57.254,28.18
2022-06-15 05:00,35.583,22.775,57.249,28.18
2022-06-15 06:00,35.586,22.781,57.239,28.17
2022-06-15 07:00,35.497,22.734,57.046,28.11
2022-06-15 08:00,35.576,22.781,57.202,28.15
2022-06-15 09:00,35.555,22.764,57.176,28.15
2022-06-15 10:00,35.485,22.732,57.009,28.09
2022-06-15 11:00,35.471,22.718,56.999,28.10
2022-06-15 12:00,35.532,22.754,57.121,28.13
2022-06-15 13:00,35.546,22.760,57.154,28.15
2022-06-15 14:00,35.548,22.758,57.169,28.16
2022-06-15 15:00,35.547,22.751,57.188,28.17
2022-06-15 16:00,35.545,22.738,57.222,28.21
2022-06-15 17:00,35.552,22.741,57.242,28.22
2022-06-15 18:00,35.552,22.742,57.237,28.21
2022-06-15 19:00,35.551,22.740,57.237,28.22
2022-06-15 20:00,35.550,22.738,57.241,28.22
2022-06-15 21:00,35.535,22.729,57.213,28.21
2022-06-15 22:00,35.530,22.732,57.183,28.19
2022-06-15 23:00,35.527,22.732,57.173,28.19
2022-06-16 00:00,35.526,22.733,57.165,28.18
2022-06-16 01:00,35.531,22.737,57.173,28.18
2022-06-16 02:00,35.533,22.740,57.169,28.18
2022-06-16 03:00,35.537,22.749,57.155,28.16
2022-06-16 04:00,35.534,22.745,57.158,28.16
2022-06-16 05:00,35.535,22.746,57.156,28.16
2022-06-16 06:00,35.539,22.748,57.167,28.17
2022-06-16 07:00,35.540,22.749,57.165,28.16
2022-06-16 08:00,35.536,22.748,57.154,28.16
2022-06-16 09:00,35.535,22.750,57.143,28.15
2022-06-16 10:00,35.536,22.751,57.144,28.15
2022-06-16 11:00,35.531,22.750,57.128,28.14
2022-06-16 12:00,35.527,22.749,57.118,28.14
2022-06-16 13:00,35.532,22.753,57.122,28.13
2022-06-16 14:00,35.533,22.752,57.130,28.14
2022-06-16 15:00,35.533,22.746,57.148,28.16
2022-06-16 16:00,35.530,22.743,57.148,28.16
2022-06-16 17:00,35.529,22.738,57.160,28.17
2022-06-16 18:00,35.531,22.742,57.155,28.17
2022-06-16 19:00,35.534,22.746,57.151,28.16
2022-06-16 20:00,35.533,22.744,57.154,28.16
2022-06-16 21:00,35.530,22.746,57.139,28.15
2022-06-16 22:00,35.525,22.745,57.122,28.14
2022-06-16 23:00,35.521,22.747,57.101,28.13
2022-06-17 00:00,35.519,22.748,57.087,28.12
2022-06-17 01:00,35.523,22.757,57.074,28.10
2022-06-17 02:00,35.523,22.759,57.065,28.09
2022-06-17 03:00,35.529,22.769,57.058,28.08
2022-06-17 04:00,35.527,22.770,57.044,28.07
2022-06-17 05:00,35.530,22.769,57.066,28.08
2022-06-17 06:00,35.541,22.782,57.062,28.07
2022-06-17 07:00,35.537,22.781,57.051,28.06
2022-06-17 08:00,35.536,22.781,57.046,28.06
2022-06-17 09:00,35.534,22.784,57.027,28.04
2022-06-17 10:00,35.532,22.780,57.036,28.05
2022-06-17 11:00,35.527,22.778,57.022,28.05
2022-06-17 12:00,35.527,22.777,57.024,28.05
2022-06-17 13:00,35.524,22.773,57.027,28.06
2022-06-17 14:00,35.525,22.756,57.088,28.11
2022-06-17 15:00,35.531,22.732,57.187,28.20
2022-06-17 16:00,35.531,22.694,57.313,28.31
2022-06-17 17:00,35.532,22.695,57.313,28.31
2022-06-17 18:00,35.535,22.688,57.345,28.34
2022-06-17 19:00,35.542,22.706,57.315,28.30
2022-06-17 20:00,35.546,22.716,57.299,28.28
2022-06-17 21:00,35.550,22.730,57.271,28.25